sat.trackr.live / text

‹ back to catalog

STARLINK-35645

NORAD 66124 · 2025-237L

PAYLOAD ACTIVE UNKNOWN

§ Identity

Operator
Country
US
Launch date
2025-10-22
Launch site
AFWTR
Launch vehicle
Mass (kg)
RCS (m²)

Purposes: comms

External: N2YO · Heavens-Above · Gunter

§ Orbital elements

Epoch: 2026-09-19T12:52:27.175296Z

Period
93.85 min
Inclination
53.1573°
Eccentricity
0.0001441
Mean motion
15.34395650 rev/d
Perigee alt
461.7 km
Apogee alt
463.7 km
Semi-major
6,840.9 km
B*
4.6163e-4
RAAN
216.0835°
Arg perigee
57.1882°
Mean anomaly
302.9260°
Rev number
5,233

§ Raw data

STARLINK-356451 66124U 25237L   26262.53642564  .00015250  00000+0  46163-3 0  99962 66124  53.1573 216.0835 0001441  57.1882 302.9260 15.34395650 52337

JSON: /api/v1/satellites/66124 · /tle

For live sub-satellite position, see the globe view (requires WebGL).

§ Visibility from observer

Set your observer location to see the next 7 days of passes ≥ 10°. The values pass through the URL so the page stays shareable.

No JS? Fill the form by hand. The geolocation button needs JavaScript.